Weather History for KODX - April, 2013

Change the Weather History Date:

Tuesday, April 23, 2013

  Actual Average Record
Temperature  
Mean Temperature 29 °F 51 °F  
Max Temperature 37 °F 64 °F 87 °F (2009)
Min Temperature 21 °F 39 °F 21 °F (2013)
Degree Days  
Heating Degree Days 36 14  
Month to date heating degree days 593 400  
Since 1 July heating degree days 6534 6263  
Cooling Degree Days 0 0  
Month to date cooling degree days 0 0  
Year to date cooling degree days 0 0  
Moisture  
Dew Point 20 °F    
Average Humidity 69    
Maximum Humidity 81    
Minimum Humidity 56    
Precipitation  
Precipitation 0.00 in 0.10 in 1.63 in (1985)
Month to date precipitation 2.51 1.85  
Year to date precipitation 4.74 4.11  
Sea Level Pressure  
Sea Level Pressure 30.31 in    
Wind  
Wind Speed 11 mph (NNW)    
Max Wind Speed 23 mph    
Max Gust Speed 28 mph    
Visibility 10 miles    
Events      
T = Trace of Precipitation, MM = Missing Value Source: NWS Daily Summary

Daily Weather History Graph

Daily Weather History Graph

Search for Another Location

Airport or City:

Trip Planner

Search our weather history database for the weather conditions in past years. The results will help you decide how hot, cold, wet, or windy it might be!

Date:

Astronomy

Apr. 23, 2013 Rise Set
Actual Time 6:43 AM CDT 8:25 PM CDT
Civil Twilight 6:13 AM CDT 8:55 PM CDT
Nautical Twilight 5:38 AM CDT 9:30 PM CDT
Astronomical Twilight 4:59 AM CDT 10:09 PM CDT
Moon 6:20 PM CDT (4/23) 5:14 AM CDT (4/23)
Length of Visible Light 14h 41m
Length of Day
13h 42m
Waxing Gibbous, 94% of the Moon is Illuminated
Apr 23
Waxing Gibbous
Apr 25
Full
May 2
Last Quarter
May 9
New
May 17
First Quarter

Hourly Weather History & Observations

Time (CDT) Temp. Windchill Dew Point Humidity Pressure Visibility Wind Dir Wind Speed Gust Speed Precip Events Conditions
12:53 AM 28.9 °F 16.5 °F 21.0 °F 72% 30.38 in 10.0 mi North 18.4 mph 25.3 mph N/A   Overcast
1:53 AM 28.9 °F 17.7 °F 21.9 °F 75% 30.38 in 10.0 mi North 15.0 mph - N/A   Overcast
2:53 AM 28.0 °F 17.0 °F 21.9 °F 78% 30.35 in 10.0 mi North 13.8 mph 24.2 mph N/A   Overcast
3:33 AM 26.6 °F 14.7 °F 19.4 °F 74% 30.27 in 10.0 mi North 15.0 mph - N/A   Scattered Clouds
3:53 AM 27.0 °F 16.7 °F 19.9 °F 75% 30.36 in 10.0 mi North 11.5 mph - N/A   Clear
4:53 AM 26.1 °F 15.0 °F 19.0 °F 75% 30.35 in 10.0 mi NNW 12.7 mph - N/A   Clear
5:53 AM 25.0 °F 13.6 °F 19.0 °F 78% 30.34 in 10.0 mi NNW 12.7 mph - N/A   Clear
6:53 AM 23.0 °F 13.1 °F 17.1 °F 78% 30.35 in 10.0 mi NNW 9.2 mph - N/A   Clear
7:53 AM 23.0 °F 12.4 °F 18.0 °F 81% 30.36 in 10.0 mi NW 10.4 mph - N/A   Clear
8:53 AM 24.1 °F 11.5 °F 18.0 °F 77% 30.36 in 10.0 mi NNW 15.0 mph - N/A   Clear
9:53 AM 25.0 °F 12.2 °F 17.1 °F 72% 30.36 in 10.0 mi NNW 16.1 mph - N/A   Clear
10:53 AM 27.0 °F 13.5 °F 17.1 °F 66% 30.35 in 10.0 mi NNW 19.6 mph - N/A   Clear
11:53 AM 28.9 °F 16.1 °F 17.1 °F 61% 30.34 in 10.0 mi NNW 19.6 mph - N/A   Clear
12:53 PM 30.0 °F 17.9 °F 17.1 °F 59% 30.32 in 10.0 mi North 18.4 mph - N/A   Clear
1:53 PM 32.0 °F 21.6 °F 19.0 °F 59% 30.30 in 10.0 mi North 15.0 mph 24.2 mph N/A   Clear
2:53 PM 33.1 °F 23.9 °F 21.0 °F 61% 30.28 in 10.0 mi North 12.7 mph - N/A   Partly Cloudy
3:53 PM 35.1 °F 26.9 °F 21.9 °F 59% 30.27 in 10.0 mi North 11.5 mph - N/A   Mostly Cloudy
4:53 PM 36.0 °F 29.0 °F 21.9 °F 57% 30.25 in 10.0 mi North 9.2 mph - N/A   Scattered Clouds
5:53 PM 36.0 °F 26.3 °F 21.9 °F 57% 30.24 in 10.0 mi North 16.1 mph - N/A   Mostly Cloudy
6:53 PM 36.0 °F 29.0 °F 21.0 °F 55% 30.24 in 10.0 mi North 9.2 mph - N/A   Partly Cloudy
7:53 PM 35.1 °F 30.1 °F 23.0 °F 61% 30.24 in 10.0 mi North 5.8 mph - N/A   Clear
8:53 PM 32.0 °F 28.7 °F 21.9 °F 66% 30.25 in 10.0 mi North 3.5 mph - N/A   Clear
9:53 PM 27.0 °F 23.0 °F 21.0 °F 78% 30.27 in 10.0 mi WNW 3.5 mph - N/A   Clear
10:53 PM 25.0 °F 20.7 °F 19.9 °F 81% 30.28 in 10.0 mi WNW 3.5 mph - N/A   Clear
11:53 PM 25.0 °F - 19.9 °F 81% 30.27 in 10.0 mi Calm Calm - N/A   Clear